Simultaneous Nadir Overpasses (SNOs) Predictions

Prediction of SNOs between AQUA and METOP-C Satellite Orbit:

Table of predicted SNOs for the next 14.0 days since TLE Epoch: 12/28/2024
Index Date (AQUA) Time (AQUA) Lat,Lon (AQUA) SZA (AQUA ) Date (METOP-C) Time (METOP-C) Lat,Lon (METOP-C) SZA (METOP-C ) Distance(km) Time Diff (sec)
1 12/29/2024 21:02:34 -76.02, 45.01 80.91 12/29/2024 21:02:27 -76.02, 44.88 80.90 3.51 7
2 12/29/2024 21:51:56 76.10,-147.56 99.17 12/29/2024 21:53:06 76.08,-147.60 99.15 2.20 70
3 01/01/2025 09:52:33 -76.00,-147.35 81.13 01/01/2025 09:51:21 -76.01,-147.37 81.10 2.17 72
4 01/01/2025 10:41:55 76.07, 20.07 98.96 01/01/2025 10:42:00 76.07, 20.15 98.95 2.19 5
5 01/01/2025 11:31:25 -76.62,-174.10 80.49 01/01/2025 11:32:29 -76.63,-170.52 80.49 92.32 64
6 01/03/2025 23:31:51 76.01,-172.16 98.65 01/03/2025 23:30:54 76.05,-172.15 98.69 3.83 57
7 01/04/2025 00:21:11 -76.08, -4.72 81.28 01/04/2025 00:21:35 -76.06, -4.78 81.31 2.98 24
8 01/06/2025 13:11:05 -76.03, 163.03 81.63 01/06/2025 13:10:28 -76.07, 163.03 81.59 4.00 37
9 01/06/2025 14:00:27 76.12, -29.58 98.46 01/06/2025 14:01:07 76.12, -29.45 98.47 3.46 40
10 01/09/2025 02:50:19 76.08, 138.14 98.08 01/09/2025 02:50:01 76.07, 138.14 98.07 1.12 18



Historial Predications of SNOs between AQUA and METOP-C
